| time (UTC) | temp F | wind direction | speed MPH | gust MPH | rain 1hr in | rain 24hr in | rain mn in | humidity % | barometer mb |
| 20260904061540 | 80 | 119 | 4.0 | 11.0 | 0.00 | 0.00 | 0.00 | 82 | 1011.1 |
| 20260904060028 | 80 | 153 | 3.0 | 10.0 | 0.00 | 0.00 | 0.00 | 82 | 1011.2 |
| 20260904054628 | 80 | 192 | 5.0 | 10.0 | 0.00 | 0.00 | 0.00 | 82 | 1011.0 |
| 20260904053025 | 80 | 145 | 4.0 | 10.0 | 0.00 | 0.00 | 0.00 | 82 | 1011.1 |
| 20260904051523 | 80 | 150 | 5.0 | 10.0 | 0.00 | 0.00 | 0.00 | 82 | 1011.0 |
| 20260904050020 | 80 | 134 | 3.0 | 11.0 | 0.00 | 0.00 | 0.00 | 81 | 1010.9 |
| 20260904044534 | 80 | 154 | 4.0 | 11.0 | 0.00 | 0.00 | 0.00 | 81 | 1010.9 |
| 20260904043028 | 80 | 167 | 6.0 | 11.0 | 0.00 | 0.00 | 0.00 | 80 | 1010.8 |
| 20260904041521 | 80 | 129 | 3.0 | 11.0 | 0.00 | 0.00 | 0.00 | 79 | 1010.9 |
| 20260904040017 | 81 | 131 | 5.0 | 11.0 | 0.00 | 0.00 | 0.00 | 78 | 1011.0 |
| 20260904034516 | 81 | 126 | 4.0 | 9.0 | 0.00 | 0.00 | 0.00 | 77 | 1010.8 |
| 20260904033115 | 81 | 144 | 4.0 | 11.0 | 0.00 | 0.00 | 0.00 | 76 | 1010.8 |
| 20260904031515 | 81 | 138 | 5.0 | 13.0 | 0.00 | 0.00 | 0.00 | 75 | 1010.7 |
| 20260904030020 | 82 | 134 | 2.0 | 9.0 | 0.00 | 0.00 | 0.00 | 74 | 1010.6 |
| 20260904024516 | 82 | 123 | 5.0 | 12.0 | 0.00 | 0.00 | 0.00 | 73 | 1010.4 |
| 20260904023013 | 82 | 175 | 6.0 | 14.0 | 0.00 | 0.00 | 0.00 | 72 | 1010.2 |
| 20260904021521 | 82 | 136 | 3.0 | 8.0 | 0.00 | 0.00 | 0.00 | 70 | 1010.2 |
| 20260904020012 | 83 | 132 | 3.0 | 9.0 | 0.00 | 0.00 | 0.00 | 70 | 1009.9 |
| 20260904014511 | 83 | 122 | 4.0 | 9.0 | 0.00 | 0.00 | 0.00 | 69 | 1009.6 |
| 20260904013011 | 83 | 144 | 5.0 | 11.0 | 0.00 | 0.00 | 0.00 | 69 | 1009.6 |
| 20260904011510 | 84 | 133 | 7.0 | 13.0 | 0.00 | 0.00 | 0.00 | 68 | 1009.6 |
| 20260904010010 | 84 | 141 | 5.0 | 13.0 | 0.00 | 0.00 | 0.00 | 68 | 1009.5 |
| 20260904004509 | 85 | 131 | 6.0 | 13.0 | 0.00 | 0.00 | 0.00 | 67 | 1009.3 |
| 20260904003008 | 86 | 102 | 7.0 | 12.0 | 0.00 | 0.00 | 0.00 | 66 | 1009.3 |
| 20260904001508 | 86 | 119 | 7.0 | 13.0 | 0.00 | 0.00 | 0.00 | 66 | 1009.2 |
| 20260904000007 | 87 | 115 | 7.0 | 18.0 | 0.00 | 0.00 | 0.00 | 66 | 1009.1 |
| 20260903234517 | 88 | 140 | 6.0 | 15.0 | 0.00 | 0.00 | 0.00 | 66 | 1009.0 |
| 20260903233005 | 89 | 93 | 8.0 | 16.0 | 0.00 | 0.00 | 0.00 | 64 | 1008.8 |
| 20260903231504 | 90 | 145 | 10.0 | 19.0 | 0.00 | 0.00 | 0.00 | 64 | 1008.8 |
| 20260903230008 | 91 | 126 | 8.0 | 16.0 | 0.00 | 0.00 | 0.00 | 64 | 1008.5 |
| 20260903224508 | 92 | 102 | 7.0 | 16.0 | 0.00 | 0.00 | 0.00 | 61 | 1008.4 |
| 20260903223002 | 93 | 138 | 6.0 | 18.0 | 0.00 | 0.00 | 0.00 | 58 | 1008.3 |
| 20260903221502 | 94 | 71 | 7.0 | 14.0 | 0.00 | 0.00 | 0.00 | 57 | 1008.3 |
| 20260903220120 | 95 | 92 | 8.0 | 15.0 | 0.00 | 0.00 | 0.00 | 55 | 1008.2 |
| 20260903214559 | 93 | 111 | 4.0 | 12.0 | 0.00 | 0.00 | 0.00 | 55 | 1008.3 |
| 20260903213157 | 94 | 132 | 6.0 | 14.0 | 0.00 | 0.00 | 0.00 | 55 | 1008.5 |
| 20260903211602 | 95 | 136 | 5.0 | 13.0 | 0.00 | 0.00 | 0.00 | 55 | 1008.5 |
| 20260903210105 | 94 | 98 | 6.0 | 14.0 | 0.00 | 0.00 | 0.00 | 55 | 1008.6 |
| 20260903204553 | 95 | 69 | 5.0 | 11.0 | 0.00 | 0.00 | 0.00 | 54 | 1008.7 |
| 20260903203050 | 95 | 136 | 5.0 | 11.0 | 0.00 | 0.00 | 0.00 | 54 | 1009.1 |
| 20260903201547 | 96 | 71 | 3.0 | 8.0 | 0.00 | 0.00 | 0.00 | 51 | 1009.4 |
| 20260903200044 | 95 | 153 | 3.0 | 7.0 | 0.00 | 0.00 | 0.00 | 55 | 1009.5 |
| 20260903194540 | 93 | 126 | 3.0 | 9.0 | 0.00 | 0.00 | 0.00 | 57 | 1009.7 |
| 20260903193036 | 92 | 47 | 3.0 | 7.0 | 0.00 | 0.00 | 0.00 | 57 | 1009.9 |
| 20260903191546 | 92 | 117 | 2.0 | 7.0 | 0.00 | 0.00 | 0.00 | 58 | 1010.1 |
| 20260903190029 | 91 | 76 | 2.0 | 8.0 | 0.00 | 0.00 | 0.00 | 59 | 1010.4 |
| 20260903184540 | 91 | 109 | 3.0 | 9.0 | 0.00 | 0.00 | 0.00 | 59 | 1010.6 |
| 20260903183028 | 91 | 109 | 2.0 | 5.0 | 0.00 | 0.00 | 0.00 | 59 | 1010.9 |
| 20260903181526 | 91 | 108 | 2.0 | 8.0 | 0.00 | 0.00 | 0.00 | 60 | 1011.0 |
| 20260903180031 | 90 | 49 | 3.0 | 7.0 | 0.00 | 0.00 | 0.00 | 60 | 1011.2 |
| 20260903174519 | 89 | 127 | 1.0 | 6.0 | 0.00 | 0.00 | 0.00 | 64 | 1011.5 |
| 20260903173020 | 88 | 107 | 2.0 | 6.0 | 0.00 | 0.00 | 0.00 | 64 | 1011.7 |
| 20260903171515 | 88 | 128 | 2.0 | 6.0 | 0.00 | 0.00 | 0.00 | 64 | 1011.8 |
| 20260903170013 | 88 | 119 | 2.0 | 7.0 | 0.00 | 0.00 | 0.00 | 65 | 1011.9 |
| 20260903164510 | 88 | 150 | 3.0 | 7.0 | 0.00 | 0.00 | 0.00 | 66 | 1011.6 |
| 20260903163008 | 87 | 193 | 3.0 | 11.0 | 0.00 | 0.00 | 0.00 | 66 | 1011.5 |
| 20260903161505 | 87 | 194 | 5.0 | 11.0 | 0.00 | 0.00 | 0.00 | 67 | 1011.5 |
| 20260903160002 | 86 | 159 | 3.0 | 11.0 | 0.00 | 0.00 | 0.00 | 69 | 1011.5 |
| 20260903154559 | 85 | 182 | 5.0 | 10.0 | 0.00 | 0.00 | 0.00 | 71 | 1011.3 |
| 20260903153056 | 84 | 140 | 3.0 | 8.0 | 0.00 | 0.00 | 0.00 | 74 | 1011.2 |
| 20260903151554 | 84 | 185 | 4.0 | 11.0 | 0.00 | 0.00 | 0.00 | 75 | 1011.2 |
| 20260903150054 | 83 | 207 | 3.0 | 10.0 | 0.00 | 0.00 | 0.00 | 77 | 1011.3 |
| 20260903144550 | 83 | 115 | 2.0 | 8.0 | 0.00 | 0.00 | 0.00 | 79 | 1011.3 |
| 20260903143105 | 82 | 182 | 4.0 | 9.0 | 0.00 | 0.00 | 0.00 | 80 | 1011.4 |
| 20260903141544 | 81 | 190 | 4.0 | 8.0 | 0.00 | 0.00 | 0.00 | 82 | 1011.2 |
| 20260903140044 | 81 | 163 | 3.0 | 6.0 | 0.00 | 0.00 | 0.00 | 84 | 1011.3 |
| 20260903134542 | 80 | 177 | 2.0 | 8.0 | 0.00 | 0.00 | 0.00 | 85 | 1011.3 |
| 20260903133041 | 80 | 175 | 3.0 | 10.0 | 0.00 | 0.00 | 0.00 | 86 | 1011.3 |
| 20260903131548 | 79 | 127 | 3.0 | 10.0 | 0.00 | 0.00 | 0.00 | 86 | 1011.3 |
| 20260903130038 | 79 | 158 | 3.0 | 8.0 | 0.00 | 0.00 | 0.00 | 87 | 1011.3 |
| 20260903124540 | 79 | 163 | 2.0 | 10.0 | 0.00 | 0.00 | 0.00 | 88 | 1011.1 |
| 20260903123041 | 79 | 196 | 3.0 | 8.0 | 0.00 | 0.00 | 0.00 | 88 | 1011.1 |
| 20260903121536 | 79 | 167 | 2.0 | 11.0 | 0.00 | 0.00 | 0.00 | 88 | 1011.0 |
| 20260903120038 | 79 | 171 | 2.0 | 11.0 | 0.00 | 0.00 | 0.00 | 87 | 1011.0 |
| 20260903114536 | 79 | 153 | 3.0 | 8.0 | 0.00 | 0.00 | 0.00 | 88 | 1010.8 |
| 20260903113041 | 79 | 188 | 4.0 | 8.0 | 0.00 | 0.00 | 0.00 | 88 | 1010.8 |
| 20260903111532 | 79 | 148 | 4.0 | 8.0 | 0.00 | 0.00 | 0.00 | 88 | 1010.9 |
| 20260903110032 | 79 | 98 | 3.0 | 7.0 | 0.00 | 0.00 | 0.00 | 88 | 1010.8 |
| 20260903104528 | 79 | 165 | 3.0 | 8.0 | 0.00 | 0.00 | 0.00 | 88 | 1010.6 |
| 20260903103029 | 79 | 175 | 2.0 | 6.0 | 0.00 | 0.00 | 0.00 | 87 | 1010.5 |
| 20260903101527 | 79 | 177 | 3.0 | 7.0 | 0.00 | 0.00 | 0.00 | 87 | 1010.5 |
| 20260903100027 | 79 | 175 | 2.0 | 8.0 | 0.00 | 0.00 | 0.00 | 87 | 1010.5 |
| 20260903094524 | 79 | 198 | 3.0 | 7.0 | 0.00 | 0.00 | 0.00 | 86 | 1010.5 |
| 20260903093029 | 79 | 155 | 2.0 | 8.0 | 0.00 | 0.00 | 0.00 | 86 | 1010.6 |
| 20260903091521 | 79 | 146 | 3.0 | 8.0 | 0.00 | 0.00 | 0.00 | 85 | 1010.9 |
| 20260903090023 | 79 | 186 | 3.0 | 12.0 | 0.00 | 0.00 | 0.00 | 85 | 1010.8 |
| 20260903084523 | 79 | 169 | 3.0 | 9.0 | 0.00 | 0.00 | 0.00 | 84 | 1010.8 |
| 20260903083017 | 80 | 150 | 3.0 | 9.0 | 0.00 | 0.00 | 0.00 | 84 | 1010.8 |
| 20260903081516 | 80 | 160 | 1.0 | 8.0 | 0.00 | 0.00 | 0.00 | 83 | 1010.9 |
| 20260903080015 | 80 | 124 | 2.0 | 9.0 | 0.00 | 0.00 | 0.00 | 82 | 1010.8 |
| 20260903074513 | 80 | 156 | 2.0 | 9.0 | 0.00 | 0.00 | 0.00 | 81 | 1010.9 |
| 20260903073012 | 79 | 176 | 4.0 | 8.0 | 0.00 | 0.00 | 0.00 | 81 | 1010.9 |
| 20260903071511 | 79 | 165 | 2.0 | 7.0 | 0.00 | 0.00 | 0.00 | 81 | 1011.0 |
| 20260903070010 | 79 | 139 | 2.0 | 5.0 | 0.00 | 0.00 | 0.00 | 81 | 1011.1 |
| 20260903064508 | 80 | 150 | 3.0 | 7.0 | 0.00 | 0.00 | 0.00 | 81 | 1011.1 |
| 20260903063006 | 80 | 124 | 3.0 | 7.0 | 0.00 | 0.00 | 0.00 | 81 | 1011.3 |